LiveATC.Net - Listen to live air traffic control over the Internet! Contact LiveATC.net for advertising information


ICAO: SBNF  IATA: NVT   Airport: Navegantes-Ministro Victor Konder International Airport
City: Navegantes
Country: Brazil   Continent: South America
SBNF METAR Weather: SBNF 261200Z 16005KT 8000 SCT006 BKN025 26/24 Q1007
SBNF Flight Activity (FlightAware)
SBNF Twr/App
Feed Status: DOWN
Last heard on: 2014-09-14 14:24:03 (72 days 22 hours 22 minutes ago)
SBNF Twr/App Audio Archives
FacilityFrequency
Navegantes Approach119.500
Navegantes Tower118.200


NOTICE

Unauthorized use prohibited. See LiveATC.net Terms of Service


Find LiveATC Audio Streams


Airport/ARTCC Code

Frequency
(e.g., 124.400, 128.75)
Site-wide search

Browse LiveATC Feeds
LiveATC Coverage Map
Top 50 LiveATC Feeds
Bad Weather Areas

LiveATC FAQ
Offer a LiveATC Feed
Contact LiveATC.net
Press Inquiries

LiveATC on iPhone
LiveATC on Android

LiveATC Mobile
(Mobile browser)

ATC Audio Archives
Interesting Recordings

LiveATC Forums


Home Page
About LiveATC.net
Make a Donation
LiveATC Bookstore

Terms of Use
Privacy Policy

ATC/Radar Sites
U.S. ARTCC Freqs
Canadian Air Freqs

AIRMETs/SIGMETs

FAA Airport Status
Nat'l Airspace Status
Arrival Demand Charts


Server Software By:
Icecast.org
Liquidsoap

Please make a donation to help us keep growing!